Regional Weather Roundup
Issued by NWS Green Bay, WI

Home | Current Version | Previous Version | Text Only | Print | Product List | Glossary On
Versions: 1 2 3 4 5 6 7 8 9 10 11 12 13 14 15 16 17 18 19 20 21 22 23 24 25 26 27 28 29 30 31 32 33 34 35 36 37 38 39 40 41 42 43 44 45 46 47 48 49 50
000
ASUS43 KGRB 180311
RWRGRB

NORTH-CENTRAL AND NORTHEAST WISCONSIN REGIONAL WEATHER ROUNDUP
NATIONAL WEATHER SERVICE GREEN BAY WI
900 PM CST TUE JAN 17 2017

WIZ005-009-010>012-018-019-180400-
NORTH CENTRAL WISCONSIN

CITY           SKY/WX    TMP DP  RH WIND       PRES   REMARKS
IRONWOOD       CLOUDY    18  16  93 CALM      29.89F FOG
MANITOWISH WTR   N/A     20  20 100 CALM      29.89S FOG
ARBOR VITAE    CLOUDY    24  22  94 CALM      29.89S FOG
EAGLE RIVER    FOG       23  22  99 CALM      29.88S VSB 1/2
LAND O LAKES   CLEAR     21  20  96 CALM      29.90R
RHINELANDER    CLEAR     28  26  92 W5        29.89S
PHILLIPS       FOG       19  19  97 CALM      29.91R VSB 1/2
ANTIGO         FOG       28  28 100 CALM      29.90S VSB 1/2
TOMAHAWK       CLEAR     25  24  95 CALM      29.91S
MERRILL        FOG       30  30 100 CALM        N/A  VSB 1/2
$$

WIZ013-073-180400-
NORTHEAST WISCONSIN

CITY           SKY/WX    TMP DP  RH WIND       PRES   REMARKS
IRON MOUNTAIN  FOG       25  21  85 CALM      29.88S VSB 1/4
MARINETTE      NOT AVBL
OCONTO         CLOUDY    32  32 100 W3        29.93R VSB 3/4
$$

WIZ017-030-035>037-045-180400-
CENTRAL WISCONSIN

CITY           SKY/WX    TMP DP  RH WIND       PRES   REMARKS
MEDFORD        CLEAR     31  30  99 W5        29.92R FOG
WAUSAU         FOG       32  32 100 CALM      29.91R VSB 3/4
MOSINEE        CLEAR     32  32 100 W5        29.93R FOG
MARSHFIELD     PTCLDY    32  31  96 W7        29.92S
WISC RAPIDS    FOG       33  33 100 W5        29.95R VSB 1/4
STEVENS POINT  CLOUDY    32  32 100 CALM      29.94R FOG
WAUPACA        CLOUDY    35  33  94 CALM      29.94S FOG
SHAWANO        CLOUDY    35  33  94 CALM      29.93S FOG
CLINTONVILLE   CLOUDY    34  32  93 W3        29.93R FOG
WAUTOMA        CLOUDY    34  34 100 SW3       29.95S FOG
$$

WIZ038-039-048-051-180400-
FOX VALLEY

CITY           SKY/WX    TMP DP  RH WIND       PRES   REMARKS
NWS GREEN BAY  FOG       35  35 100 CALM      29.93F VSB 1/2
APPLETON       FOG       34  34 100 VRB5      29.92S VSB 1/2
OSHKOSH        CLOUDY    33  33 100 W5        29.93S FOG
FOND DU LAC    CLOUDY    34  31  88 NW5       29.94S FOG
$$

WIZ022-050-052-180400-
EAST CENTRAL WISCONSIN

CITY           SKY/WX    TMP DP  RH WIND       PRES   REMARKS
EPHRAIM        FOG       32  32 100 CALM      29.90S VSB 1/4
WASHINGTON ISL FOG       32  32 100 CALM      29.90S VSB 1
STURGEON BAY   FOG       32  32 100 N3        29.92S VSB 1
MANITOWOC      CLOUDY    34  33  96 MISG      29.93S
SHEBOYGAN      CLOUDY    34  32  92 NW6       29.93R FOG
$$

LMZ563-521-522-541>543-180400-
LAKESHORE

STATION/POSITION TIME  TEMP    WIND        PRES    VSBY  WAVE
                       AIR SEA DIR/SP/G                  HT/PER
                 (UTC) (F)     (DEG/KT/KT) (MB)    (MI)  (FT/S)
SHEBOYGAN LKSHOR 0300   34     300/  7/  9 1014.0R
KEWAUNEE LKSHORE 0242   33     310/  4/  6 1012.8R
ALGOMA MARINA    0153          320/  4/  6   N/A
NORTHPORT PIER   0240   33        CALM     1012.9S
SISTER BAY LKSHO 0235   32        CALM       N/A
MENOMINEE LKSHOR 0236          340/  5/  6 1012.4F
$$




USA.gov is the U.S. government's official web portal to all federal, state and local government web resources and services.